Sortie journée du dimanche 21 décembre 2025 Boissy Saint Léger Forêt Notre Dame et de la Grange
Publié le 21 Décembre 2025
Nous sommes 9 au départ de Paray Vieille Poste, c’est donc à 2 véhicules que nous partons vers Boissy Saint Léger.
Il fait 8° et le temps est incertain mais sec pour l’instant.
Il est 9h15, lorsque nous passons sous les lignes à haute tension pour entrer dans La Forêt Domaniale Notre Dame par la rue de Marolles.
Nous tournons à gauche dans l’Allée Royale pour rejoindre le GRP de la Brie Verte jusqu’à la Porte de Lésigny.
Nous suivons l’Allée du Parc aux Bœufs avant de tourner à droite SE sur le GRP Ceinture Verte d’Ile de France que nous suivons jusqu’au village de Santeny et son église Saint Germain. Nous nous attardons afin d’admirer cet ouvrage fraichement rénové. Nous en profitons pour faire une pause et couvrir nos sacs car la pluie s’est invitée et ne s’arrêtera pas de tout notre périple.
Nous poursuivons notre chemin jusqu’à la N19 puis jusqu’à Mandres où nous empruntons le Chemin des Roses. Nous passons devant l’ancienne gare de Mandres. Un panneau nous rappelle qu’il s’agissait du passage de l’ancienne ligne ferroviaire qui reliait Paris Bastille à Verneuil l’Etang, utilisée entre autres pour le fret de roses, d’où son nom.
A midi nous arrivons près du Réveillon que nous longeons jusqu’à une aire de pique-nique non abritée, nous décidons d’un commun accord de déjeuner debout mais couvert d’un abri. Après nous être rassasié et réchauffé de café ou thé agrémentés de chocolats apportés par une randonneuse, nous repartons le long du Réveillon.
Nous poursuivons jusqu’à l’Allée Royale, puis La Végétale, traversons la D260 avec prudence car le trafic est dense.
Nous suivons un GRP que nous laissons pour éviter une partie dangereuse pour cause de maladie de l’Encre, fragilisant les arbres.
Nous rejoignons la N19, la traversons puis après être passé devant la mairie de Boissy Saint Léger, nous tournons à droite et entrons dans la forêt de Grosbois. Nous suivons l’Allée Elisabeth puis l’Allée du Clocher qui butte sur le mur d’enceinte du Centre Equestre de Grosbois. Nous suivons alors l’Allée du Chevreuil qui nous ramène au parking.
Après s’être changé, nous nous désaltérons de boissons de l’open-bar avec à nouveau des chocolats et quelques gâteaux.
Nous avons randonné 21km en 5h40 (y compris les pauses).
Le retour vers Paray se fait sans encombre.
Merci à tous de votre présence et de votre bonne humeur malgré le temps un peu humide.
Très belles fêtes à tous.
Patricia
Lien pour télécharger/visualiser les photos
Photos de la rando
Photos de la reco
Lien pour imprimer le descriptif
Lien pour imprimer la carte
/image%2F1382895%2F20251002%2Fob_002001_logo.png)
/image%2F1382895%2F20251221%2Fob_1073f2_2025-12-21-091959.jpg)
/image%2F1382895%2F20251221%2Fob_46dd06_2025-12-21-094556.jpg)
/image%2F1382895%2F20251221%2Fob_304d3d_2025-12-21-094601.jpg)
/image%2F1382895%2F20251221%2Fob_b26d27_2025-12-21-094604.jpg)
/image%2F1382895%2F20251221%2Fob_a5df0b_2025-12-21-094630.jpg)
/image%2F1382895%2F20251221%2Fob_175af0_2025-12-21-094637.jpg)
/image%2F1382895%2F20251221%2Fob_3889ce_2025-12-21-103009.jpg)
/image%2F1382895%2F20251221%2Fob_62ea04_2025-12-21-103811.jpg)
/image%2F1382895%2F20251221%2Fob_944541_2025-12-21-104733.jpg)
/image%2F1382895%2F20251221%2Fob_2eb9aa_2025-12-21-112600.jpg)
/image%2F1382895%2F20251221%2Fob_434dd8_2025-12-21-123458.jpg)
/image%2F1382895%2F20251221%2Fob_1c36e1_2025-12-21-123516.jpg)
/image%2F1382895%2F20251221%2Fob_13d695_2025-12-21-125356.jpg)
/image%2F1382895%2F20251221%2Fob_821db9_2025-12-21-125411.jpg)
/image%2F1382895%2F20251221%2Fob_da1369_2025-12-21-125416.jpg)
/image%2F1382895%2F20251221%2Fob_55e298_2025-12-21-125421.jpg)
/image%2F1382895%2F20251221%2Fob_c76f1e_2025-12-21-125438.jpg)
/image%2F1382895%2F20251221%2Fob_ea1f04_2025-12-21-125457.jpg)
/image%2F1382895%2F20251221%2Fob_935399_2025-12-21-125515.jpg)
/image%2F1382895%2F20251221%2Fob_ea2632_2025-12-21-125539.jpg)
/image%2F1382895%2F20251221%2Fob_938351_2025-12-21-132443.jpg)
/image%2F1382895%2F20251221%2Fob_1a4374_2025-12-21-133730.jpg)
/image%2F1382895%2F20251221%2Fob_398b75_2025-12-21-135356.jpg)
/image%2F1382895%2F20251221%2Fob_665567_2025-12-21-135516.jpg)
/image%2F1382895%2F20251221%2Fob_dacb5a_2025-12-21-140304.jpg)
/image%2F1382895%2F20251221%2Fob_4419b7_2025-12-21-142420.jpg)
/image%2F1382895%2F20251221%2Fob_fa76eb_2025-12-21-142434.jpg)
/image%2F1382895%2F20251221%2Fob_3a6ff0_2025-12-21-142440.jpg)
/image%2F1382895%2F20251221%2Fob_de0c6b_2025-12-21-142446.jpg)
/image%2F1382895%2F20251221%2Fob_9e1978_2025-12-21-142700.jpg)
/image%2F1382895%2F20251130%2Fob_bcf204_2025-11-30-094414.jpg)
/image%2F1382895%2F20251130%2Fob_19c7b5_2025-11-30-101547.jpg)
/image%2F1382895%2F20251130%2Fob_1f4266_2025-11-30-101907.jpg)
/image%2F1382895%2F20251130%2Fob_e05270_2025-11-30-104424.jpg)
/image%2F1382895%2F20251130%2Fob_f31854_2025-11-30-104854.jpg)
/image%2F1382895%2F20251130%2Fob_fb711d_2025-11-30-105011.jpg)
/image%2F1382895%2F20251130%2Fob_ca6c00_2025-11-30-111854.jpg)
/image%2F1382895%2F20251130%2Fob_6dbb78_2025-11-30-120253.jpg)
/image%2F1382895%2F20251130%2Fob_bd9002_2025-11-30-121058.jpg)
/image%2F1382895%2F20251130%2Fob_270e0f_2025-11-30-121919.jpg)
/image%2F1382895%2F20251130%2Fob_5e49a5_2025-11-30-122404.jpg)
/image%2F1382895%2F20251130%2Fob_ef1f3b_2025-11-30-134110.jpg)